Weather History for Thermal, CA

Change the Weather History Date:

Tuesday, September 24, 2013

  Actual Average Record
Temperature  
Mean Temperature 78 °F 81 °F  
Max Temperature 98 °F 99 °F 108 °F (1982)
Min Temperature 57 °F 63 °F 50 °F (2006)
Degree Days  
Heating Degree Days 0 0  
Month to date heating degree days 0 0  
Since 1 July heating degree days 0 0  
Cooling Degree Days 13 16  
Month to date cooling degree days 554 478  
Year to date cooling degree days 3838 3311  
Growing Degree Days 29 (Base 50)    
Moisture  
Dew Point 41 °F    
Average Humidity 34    
Maximum Humidity 56    
Minimum Humidity 12    
Precipitation  
Precipitation 0.00 in 0.00 in 0.19 in (1997)
Month to date precipitation 0.14 0.19  
Year to date precipitation 1.83 2.34  
Since 1 July precipitation 1.39 0.52  
Snow  
Snow 0.00 in - - ()
Month to date snowfall 0.0  
Year to date snowfall 0.0  
Since 1 July snowfall 0.0  
Snow Depth 0.00 in    
Sea Level Pressure  
Sea Level Pressure 29.78 in    
Wind  
Wind Speed 4 mph (East)    
Max Wind Speed 13 mph    
Max Gust Speed 17 mph    
Visibility 10 miles    
Events      
T = Trace of Precipitation, MM = Missing Value Source: NWS Daily Summary

Daily Weather History Graph

Daily Weather History Graph

Search for Another Location

Airport:

Trip Planner

Search our weather history database for the weather conditions in past years. The results will help you decide how hot, cold, wet, or windy it might be!

Date:

Astronomy

Sep. 24, 2013 Rise Set
Actual Time 6:34 AM PDT 6:38 PM PDT
Civil Twilight 6:09 AM PDT 7:02 PM PDT
Nautical Twilight 5:40 AM PDT 7:31 PM PDT
Astronomical Twilight 5:11 AM PDT 8:01 PM PDT
Moon 10:13 PM PDT (9/24) 11:38 AM PDT (9/24)
Length of Visible Light 12h 53m
Length of Day
12h 03m
Waning Gibbous, 72% of the Moon is Illuminated
Sep 24
Waning Gibbous
Sep 26
Last Quarter
Oct 4
New
Oct 11
First Quarter
Oct 18
Full

Hourly Weather History & Observations

Time (PDT) Temp. Dew Point Humidity Pressure Visibility Wind Dir Wind Speed Gust Speed Precip Events Conditions
12:52 AM 71.1 °F 44.1 °F 38% 29.81 in 10.0 mi NNE 5.8 mph - N/A   Clear
1:52 AM 69.1 °F 43.0 °F 39% 29.81 in 10.0 mi Calm Calm - N/A   Clear
2:52 AM 66.9 °F 44.1 °F 44% 29.81 in 10.0 mi NNW 3.5 mph - N/A   Clear
3:52 AM 62.1 °F 46.0 °F 56% 29.81 in 10.0 mi Calm Calm - N/A   Clear
4:52 AM 61.0 °F 45.0 °F 56% 29.81 in 10.0 mi Calm Calm - N/A   Clear
5:52 AM 62.1 °F 43.0 °F 50% 29.84 in 10.0 mi Calm Calm - N/A   Clear
6:52 AM 62.1 °F 46.9 °F 58% 29.83 in 10.0 mi NNW 5.8 mph - N/A   Clear
7:52 AM 73.0 °F 42.1 °F 33% 29.84 in 10.0 mi Calm Calm - N/A   Clear
8:52 AM 82.0 °F 42.1 °F 24% 29.86 in 10.0 mi Calm Calm - N/A   Clear
9:52 AM 86.0 °F 41.0 °F 20% 29.86 in 10.0 mi Calm Calm - N/A   Clear
10:52 AM 91.0 °F 41.0 °F 17% 29.85 in 10.0 mi Calm Calm - N/A   Clear
11:52 AM 91.9 °F 48.9 °F 23% 29.83 in 10.0 mi SE 6.9 mph - N/A   Clear
12:52 PM 93.0 °F 39.9 °F 16% 29.80 in 10.0 mi SE 8.1 mph - N/A   Clear
1:52 PM 96.1 °F 39.0 °F 14% 29.77 in 10.0 mi SSE 8.1 mph - N/A   Clear
2:52 PM 97.0 °F 35.1 °F 11% 29.75 in 10.0 mi SE 11.5 mph - N/A   Clear
3:52 PM 97.0 °F 35.1 °F 11% 29.72 in 10.0 mi SSE 10.4 mph 16.1 mph N/A   Clear
4:52 PM 96.1 °F 36.0 °F 12% 29.70 in 10.0 mi SSE 9.2 mph - N/A   Clear
5:52 PM 93.0 °F 37.9 °F 15% 29.72 in 10.0 mi SE 5.8 mph - N/A   Clear
6:52 PM 84.0 °F 45.0 °F 25% 29.69 in 10.0 mi South 6.9 mph - N/A   Clear
7:52 PM 80.1 °F 44.1 °F 28% 29.70 in 10.0 mi Calm Calm - N/A   Clear
8:52 PM 82.9 °F 42.1 °F 24% 29.72 in 10.0 mi NNW 10.4 mph - N/A   Clear
9:52 PM 84.0 °F 41.0 °F 22% 29.72 in 10.0 mi North 10.4 mph - N/A   Clear
10:52 PM 84.9 °F 32.0 °F 15% 29.72 in 10.0 mi NNW 13.8 mph - N/A   Clear
11:52 PM 82.9 °F 30.9 °F 15% 29.70 in 10.0 mi North 11.5 mph - N/A   Clear